Regional Weather Roundup
Issued by NWS Bismarck, ND

Home | Current Version | Previous Version | Text Only | Print | Product List | Glossary On
Versions: 1 2 3 4 5 6 7 8 9 10 11 12 13 14 15 16 17 18 19 20 21 22 23 24 25 26 27 28 29 30 31 32 33 34 35 36 37 38 39 40 41 42 43 44 45 46 47 48 49 50
000
ASUS43 KBIS 172320
RWRBIS

NWR BROADCAST TEXT
NATIONAL WEATHER SERVICE BISMARCK ND
500 PM CST WED DEC 17 2014

NOTE: "FAIR" INDICATES FEW OR NO CLOUDS BELOW 12,000 FEET WITH NO
SIGNIFICANT WEATHER AND/OR OBSTRUCTIONS TO VISIBILITY.


CITY           SKY/WX    TMP DP  RH WIND       PRES   REMARKS
WILLISTON      CLOUDY    20  13  74 S12       30.10F WCI   8
MINOT          CLEAR     13   7  77 SE6       30.18S WCI   4
MINOT AFB      PTCLDY    12  10  93 SE7       30.19R WCI   1
BISMARCK       PTCLDY    14  10  84 SE6       30.21S WCI   5
DICKINSON      CLOUDY    18  13  80 SE12      30.05S WCI   5
GARRISON         N/A     16  11  80 SE9       30.16F WCI   4
HETTINGER ARPT CLOUDY    16  14  92 SE13      30.07S WCI   2
JAMESTOWN      CLEAR     14   8  77 E6        30.25S WCI   5
BEACH          CLOUDY    19  19 100 SE14      30.03S WCI   6
CARRINGTON     FAIR      14  12  92 MISG      30.24F
CROSBY         CLOUDY    18  16  93 S10       30.12R WCI   6
HARVEY         FAIR      10   9  92 E8        30.22S WCI  -1
HAZEN          CLOUDY    18  10  73 S9        30.18S WCI   6
LINTON         FAIR      16  12  86 SE5       30.20R WCI   9
MANDAN         FAIR      14   9  79 SE6       30.18S WCI   5
OAKES            N/A     14  10  85 E9        30.27S WCI   2
RUGBY          FAIR      12   9  85 SE9       30.22F WCI   0
STANLEY        CLOUDY    16  16 100 S12G18    30.11S WCI   3
TIOGA          CLOUDY    16  16 100 S12       30.13S WCI   3
WATFORD CITY   CLOUDY    18  14  86 SE10      30.08S WCI   6
$$

CITY           SKY/WX    TMP DP  RH WIND       PRES   REMARKS
GRAND FORKS    CLEAR     14   9  80 CALM      30.32F
GRAND FORKS AF CLEAR     13  11  94 E5        30.32F WCI   5
DEVILS LAKE    PTCLDY    10   0  61 S6        30.24F WCI   1
FARGO          CLEAR     17  11  77 CALM      30.32R
CANDO          FAIR       9   7  92 SE6       30.26S WCI  -1
CAVALIER       FAIR      16  10  79 CALM      30.33
GWINNER        CLEAR     18  14  86 MISG      30.29F
LANGDON        FAIR       9   7  92 SE3       30.25S
ROLLA          FAIR       9   7  92 S8        30.22F WCI  -4
WALHALLA         N/A     14  10  85 SE3       30.32S
$$

CITY           SKY/WX    TMP DP  RH WIND       PRES   REMARKS
ABERDEEN       CLEAR     14   7  73 SE7       30.27S WCI   4
MOBRIDGE       CLOUDY    20  12  71 SE12      30.16S WCI   8
BUFFALO          N/A     20  17  88 S10       29.95R WCI   9
RAPID CITY     CLOUDY    23  20  88 NE8       30.00R WCI  14
GLASGOW        CLOUDY    24  18  77 E12       29.99S WCI  13
SIDNEY         CLOUDY    21  16  79 SE9       30.09S WCI  11
WOLF POINT     CLOUDY    25  18  74 E9        30.04F WCI  15
GLENDIVE       MOCLDY    21  18  86 SE6       30.02F WCI  14
MILES CITY     CLOUDY    25  20  81 SE6       29.98S WCI  18
BAKER          CLOUDY    20  18  92 S12       30.01S WCI   8
$$

CITY           SKY/WX    TMP DP  RH WIND       PRES   REMARKS
BILLINGS       MOCLDY    33  24  69 SW16      29.91R
GREAT FALLS    CLEAR     37  29  72 SW9       29.84S
REGINA         CLOUDY    18  14  86 S14G22    30.07S WCI   4
ESTEVAN        FLURRIES  18  12  79 SE9       30.12F WCI   6
$$




USA.gov is the U.S. government's official web portal to all federal, state and local government web resources and services.